QPF
0.00 0.00 0.00 0.00 0.00 0.00 0.00 0.00 0.00 0.00 0.00 0.00 0.00 0.00 0.00 0.00 0.00 0.00 0.00 0.00 0.00 0.00 0.00 0.00 0.00 0.00 0.00 0.00 0.00 0.00 0.00 0.00 0.00 0.00 0.00 0.00 0.01 0.01 0.01 0.01 0.01 0.01 0.01 0.01
0.00 0.00 0.00 0.00 0.00 0.00 0.00 0.00 0.00 0.00 0.00 0.00 0.00 0.00 0.00 0.00 0.00 0.00 0.00 0.00 0.00 0.00 0.00 0.00 0.00 0.00 0.00 0.00 0.00 0.00 0.00 0.00 0.01 0.00 0.00 0.01 0.01 0.01 0.00 0.00 0.00 0.00 0.00 0.00
0.00 0.00 0.00 0.00 0.00 0.00 0.00 0.00 0.00 0.00 0.00 0.00 0.00 0.00 0.00 0.00 0.00 0.00 0.00 0.00 0.00 0.00 0.00 0.00 0.00 0.00 0.00 0.00 0.00 0.00 0.00 0.00 0.00 0.00 0.00 0.00 0.01 0.01 0.00 0.00 0.00 0.00 0.00 0.00
0.00 0.00 0.00 0.00 0.00 0.00 0.00 0.00 0.00 0.00 0.00 0.00 0.00 0.00 0.00 0.00 0.00 0.00 0.00 0.00 0.00 0.00 0.00 0.00 0.00 0.00 0.00 0.00 0.00 0.00 0.00 0.00 0.00 0.00 0.00 0.00 0.00 0.00 0.00 0.00 0.00 0.00 0.00 0.00
0.00 0.00 0.00 0.00 0.00 0.00 0.00 0.00 0.00 0.00 0.00 0.00 0.00 0.00 0.00 0.00 0.00 0.00 0.00 0.00 0.00 0.00 0.00 0.00 0.00 0.00 0.00 0.00 0.00 0.00 0.00 0.00 0.00 0.00 0.00 0.00 0.00 0.00 0.00 0.00 0.00 0.00 0.00 0.00
0.00 0.00 0.00 0.00 0.00 0.00 0.00 0.00 0.00 0.00 0.00 0.00 0.00 0.00 0.00 0.00 0.00 0.00 0.00 0.00 0.00 0.00 0.00 0.00 0.00 0.00 0.00 0.00 0.00 0.00 0.00 0.00 0.00 0.00 0.00 0.00 0.00 0.00 0.00 0.00 0.00 0.00 0.00 0.00
0.00 0.00 0.00 0.00 0.00 0.00 0.00 0.00 0.00 0.00 0.00 0.00 0.00 0.00 0.00 0.00 0.00 0.00 0.00 0.00 0.00 0.00 0.00 0.00 0.00 0.00 0.00 0.00 0.00 0.00 0.00 0.00 0.00 0.00 0.00 0.00 0.00 0.00 0.00 0.00 0.00 0.00 0.00 0.00
0.00 0.00 0.00 0.00 0.00 0.00 0.00 0.00 0.00 0.00 0.00 0.00 0.00 0.00 0.00 0.00 0.00 0.00 0.00 0.00 0.00 0.00 0.00 0.00 0.00 0.00 0.00 0.00 0.00 0.00 0.00 0.00 0.00 0.00 0.00 0.00 0.00 0.00 0.00 0.00 0.00 0.00 0.00 0.00
0.00 0.00 0.00 0.00 0.00 0.00 0.00 0.00 0.00 0.00 0.00 0.00 0.00 0.00 0.00 0.00 0.00 0.00 0.00 0.00 0.01 0.01 0.01 0.00 0.00 0.00 0.00 0.00 0.00 0.00 0.00 0.00 0.00 0.00 0.00 0.00 0.00 0.00 0.00 0.00 0.00 0.00 0.00 0.00
0.00 0.00 0.00 0.00 0.00 0.00 0.00 0.00 0.00 0.00 0.00 0.00 0.00 0.00 0.00 0.00 0.00 0.00 0.00 0.00 0.00 0.00 0.00 0.00 0.00 0.00 0.00 0.00 0.00 0.00 0.00 0.00 0.00 0.00 0.00 0.00 0.00 0.00 0.00 0.00 0.00 0.00 0.00 0.00
0.00 0.00 0.00 0.00 0.00 0.00 0.00 0.00 0.00 0.00 0.00 0.00 0.00 0.00 0.00 0.00 0.00 0.00 0.00 0.00 0.00 0.00 0.00 0.00 0.00 0.00 0.00 0.00 0.00 0.00 0.00 0.00 0.00 0.00 0.00 0.00 0.00 0.00 0.00 0.00 0.00 0.00 0.00 0.00
0.00 0.00 0.00 0.00 0.00 0.00 0.00 0.00 0.00 0.00 0.00 0.00 0.00 0.00 0.00 0.00 0.00 0.00 0.00 0.00 0.00 0.00 0.00 0.00 0.00 0.00 0.00 0.00 0.00 0.00 0.00 0.00 0.00 0.00 0.00 0.00 0.00 0.00 0.00 0.00 0.00 0.00 0.00 0.00
0.00 0.00 0.00 0.00 0.00 0.00 0.00 0.00 0.00 0.00 0.00 0.00 0.00 0.00 0.00 0.00 0.00 0.00 0.00 0.00 0.00 0.00 0.00 0.00 0.00 0.00 0.00 0.00 0.00 0.00 0.00 0.00 0.00 0.00 0.00 0.00 0.00 0.00 0.00 0.00 0.00 0.00 0.00 0.00
0.00 0.00 0.00 0.00 0.00 0.00 0.00 0.00 0.00 0.00 0.00 0.00 0.00 0.00 0.00 0.00 0.00 0.00 0.00 0.00 0.00 0.00 0.00 0.00 0.00 0.00 0.00 0.00 0.00 0.00 0.00 0.00 0.00 0.00 0.00 0.00 0.00 0.00 0.00 0.00 0.00 0.00 0.00 0.00
0.00 0.00 0.00 0.00 0.00 0.00 0.00 0.00 0.00 0.00 0.00 0.00 0.00 0.00 0.00 0.00 0.00 0.00 0.00 0.00 0.00 0.00 0.00 0.00 0.00 0.00 0.00 0.00 0.00 0.00 0.00 0.00 0.00 0.00 0.00 0.00 0.00 0.00 0.00 0.00 0.00 0.00 0.00 0.00
0.00 0.00 0.00 0.00 0.00 0.00 0.00 0.00 0.00 0.00 0.00 0.00 0.00 0.00 0.00 0.00 0.00 0.00 0.00 0.00 0.00 0.00 0.00 0.00 0.00 0.00 0.00 0.00 0.00 0.00 0.00 0.00 0.00 0.00 0.00 0.00 0.00 0.00 0.00 0.00 0.00 0.00 0.00 0.00
0.00 0.00 0.00 0.00 0.00 0.00 0.00 0.00 0.00 0.00 0.00 0.00 0.00 0.00 0.00 0.00 0.00 0.00 0.00 0.00 0.00 0.00 0.00 0.00 0.00 0.00 0.00 0.00 0.00 0.00 0.00 0.00 0.00 0.00 0.00 0.00 0.00 0.00 0.00 0.00 0.00 0.00 0.00 0.00
0.00 0.00 0.00 0.00 0.00 0.00 0.00 0.00 0.00 0.00 0.00 0.00 0.00 0.00 0.00 0.00 0.00 0.00 0.00 0.00 0.00 0.00 0.00 0.00 0.00 0.00 0.00 0.00 0.00 0.00 0.00 0.00 0.00 0.00 0.00 0.00 0.00 0.00 0.01 0.01 0.01 0.01 0.00 0.00
0.00 0.00 0.00 0.00 0.00 0.00 0.00 0.00 0.00 0.00 0.00 0.00 0.00 0.00 0.00 0.00 0.00 0.00 0.00 0.00 0.00 0.00 0.00 0.00 0.00 0.00 0.00 0.00 0.00 0.00 0.00 0.00 0.00 0.00 0.00 0.00 0.01 0.01 0.01 0.01 0.01 0.00 0.00 0.00
0.00 0.00 0.00 0.00 0.00 0.00 0.00 0.00 0.00 0.00 0.00 0.00 0.00 0.00 0.00 0.00 0.00 0.00 0.00 0.00 0.00 0.00 0.00 0.00 0.00 0.00 0.00 0.00 0.00 0.01 0.01 0.01 0.01 0.00 0.01 0.01 0.01 0.01 0.01 0.01 0.01 0.00 0.00 0.00
0.00 0.00 0.00 0.00 0.00 0.00 0.00 0.00 0.00 0.00 0.00 0.00 0.00 0.00 0.00 0.00 0.00 0.00 0.00 0.00 0.00 0.00 0.00 0.00 0.00 0.01 0.01 0.01 0.01 0.01 0.01 0.01 0.01 0.01 0.01 0.01 0.01 0.01 0.01 0.01 0.01 0.00 0.00 0.00
0.00 0.00 0.00 0.00 0.00 0.00 0.00 0.00 0.00 0.00 0.00 0.00 0.00 0.00 0.00 0.00 0.00 0.00 0.00 0.00 0.00 0.00 0.00 0.00 0.01 0.01 0.01 0.01 0.01 0.00 0.00 0.01 0.01 0.01 0.01 0.01 0.01 0.01 0.01 0.01 0.00 0.00 0.00 0.00
0.00 0.00 0.00 0.00 0.00 0.00 0.00 0.00 0.00 0.00 0.00 0.00 0.00 0.00 0.00 0.00 0.00 0.00 0.00 0.00 0.00 0.00 0.00 0.00 0.01 0.00 0.00 0.00 0.00 0.00 0.00 0.01 0.01 0.01 0.01 0.01 0.01 0.01 0.01 0.00 0.00 0.00 0.00 0.00
0.00 0.00 0.00 0.00 0.00 0.00 0.00 0.00 0.00 0.00 0.00 0.00 0.00 0.00 0.00 0.00 0.00 0.00 0.00 0.00 0.00 0.00 0.00 0.00 0.00 0.00 0.00 0.00 0.00 0.00 0.00 0.01 0.01 0.01 0.01 0.01 0.01 0.01 0.01 0.01 0.00 0.00 0.00 0.00
0.00 0.00 0.00 0.00 0.00 0.00 0.00 0.00 0.00 0.00 0.00 0.00 0.00 0.00 0.00 0.00 0.00 0.00 0.00 0.00 0.00 0.00 0.00 0.00 0.00 0.00 0.00 0.00 0.01 0.01 0.01 0.01 0.01 0.01 0.01 0.01 0.01 0.01 0.01 0.01 0.00 0.00 0.00 0.00
0.00 0.00 0.00 0.00 0.00 0.00 0.00 0.00 0.00 0.00 0.00 0.00 0.00 0.00 0.00 0.00 0.00 0.00 0.00 0.00 0.00 0.00 0.00 0.00 0.00 0.00 0.01 0.01 0.01 0.01 0.01 0.01 0.01 0.01 0.01 0.01 0.01 0.01 0.01 0.01 0.01 0.01 0.00 0.00
0.00 0.00 0.00 0.00 0.00 0.00 0.00 0.00 0.00 0.00 0.00 0.00 0.00 0.00 0.00 0.00 0.00 0.00 0.00 0.00 0.00 0.00 0.00 0.00 0.01 0.01 0.01 0.01 0.01 0.01 0.01 0.01 0.01 0.01 0.01 0.01 0.01 0.01 0.01 0.01 0.01 0.01 0.01 0.00
MSLP
1017.79 1017.85 1017.83 1017.72 1017.53 1017.26 1016.94 1016.59 1016.26 1015.96 1015.72 1015.57 1015.51 1015.54 1015.64 1015.80 1015.99 1016.18 1016.36 1016.50 1016.60 1016.68 1016.74 1016.80 1016.87 1016.98 1017.12 1017.30 1017.50 1017.72 1017.94 1018.15 1018.35 1018.55 1018.75 1018.97 1019.22 1019.49 1019.80 1020.12 1020.44 1020.74 1020.97 1021.11
1017.73 1017.69 1017.57 1017.36 1017.09 1016.76 1016.40 1016.04 1015.71 1015.44 1015.25 1015.16 1015.17 1015.26 1015.44 1015.65 1015.89 1016.11 1016.30 1016.44 1016.53 1016.58 1016.59 1016.59 1016.60 1016.63 1016.69 1016.78 1016.91 1017.05 1017.21 1017.38 1017.55 1017.72 1017.92 1018.14 1018.39 1018.68 1019.01 1019.36 1019.71 1020.04 1020.32 1020.53
1017.64 1017.47 1017.23 1016.91 1016.55 1016.15 1015.75 1015.38 1015.07 1014.84 1014.72 1014.70 1014.80 1015.00 1015.26 1015.56 1015.86 1016.15 1016.37 1016.54 1016.63 1016.66 1016.63 1016.58 1016.52 1016.47 1016.45 1016.45 1016.49 1016.56 1016.64 1016.75 1016.87 1017.01 1017.17 1017.38 1017.62 1017.91 1018.24 1018.59 1018.96 1019.32 1019.63 1019.89
1017.45 1017.15 1016.79 1016.37 1015.92 1015.46 1015.04 1014.67 1014.39 1014.23 1014.18 1014.27 1014.47 1014.77 1015.14 1015.54 1015.93 1016.27 1016.55 1016.75 1016.85 1016.87 1016.81 1016.72 1016.60 1016.48 1016.37 1016.29 1016.24 1016.22 1016.23 1016.26 1016.33 1016.42 1016.55 1016.72 1016.94 1017.21 1017.52 1017.87 1018.24 1018.61 1018.95 1019.24
1017.13 1016.73 1016.27 1015.77 1015.26 1014.77 1014.34 1014.00 1013.77 1013.68 1013.73 1013.92 1014.24 1014.65 1015.12 1015.60 1016.07 1016.48 1016.80 1017.02 1017.13 1017.14 1017.06 1016.93 1016.76 1016.57 1016.39 1016.24 1016.11 1016.01 1015.95 1015.92 1015.93 1015.97 1016.06 1016.20 1016.38 1016.62 1016.91 1017.24 1017.59 1017.96 1018.30 1018.62
1016.71 1016.24 1015.72 1015.17 1014.64 1014.15 1013.75 1013.46 1013.30 1013.30 1013.45 1013.74 1014.15 1014.65 1015.20 1015.75 1016.27 1016.71 1017.06 1017.29 1017.40 1017.40 1017.30 1017.14 1016.92 1016.69 1016.46 1016.24 1016.05 1015.89 1015.77 1015.69 1015.64 1015.64 1015.69 1015.79 1015.95 1016.16 1016.41 1016.72 1017.05 1017.40 1017.74 1018.05
1016.24 1015.74 1015.20 1014.66 1014.14 1013.70 1013.35 1013.13 1013.06 1013.15 1013.39 1013.76 1014.24 1014.80 1015.39 1015.97 1016.50 1016.95 1017.29 1017.51 1017.60 1017.59 1017.47 1017.28 1017.04 1016.77 1016.50 1016.24 1016.01 1015.81 1015.64 1015.52 1015.44 1015.41 1015.42 1015.49 1015.62 1015.80 1016.04 1016.31 1016.62 1016.95 1017.27 1017.56
1015.79 1015.30 1014.79 1014.29 1013.83 1013.46 1013.20 1013.07 1013.08 1013.25 1013.55 1013.98 1014.50 1015.07 1015.66 1016.23 1016.73 1017.15 1017.46 1017.65 1017.71 1017.67 1017.53 1017.33 1017.07 1016.79 1016.49 1016.21 1015.95 1015.73 1015.53 1015.38 1015.28 1015.22 1015.22 1015.27 1015.37 1015.54 1015.75 1016.01 1016.29 1016.59 1016.89 1017.16
1015.45 1014.99 1014.54 1014.11 1013.74 1013.46 1013.29 1013.25 1013.34 1013.57 1013.92 1014.36 1014.88 1015.43 1015.98 1016.49 1016.94 1017.29 1017.55 1017.68 1017.71 1017.64 1017.49 1017.27 1017.01 1016.72 1016.42 1016.14 1015.87 1015.62 1015.42 1015.25 1015.13 1015.05 1015.03 1015.07 1015.17 1015.32 1015.52 1015.76 1016.03 1016.30 1016.57 1016.81
1015.24 1014.85 1014.47 1014.13 1013.85 1013.66 1013.58 1013.62 1013.77 1014.04 1014.41 1014.85 1015.33 1015.82 1016.30 1016.73 1017.10 1017.37 1017.55 1017.63 1017.61 1017.52 1017.35 1017.13 1016.87 1016.58 1016.29 1016.01 1015.73 1015.49 1015.27 1015.09 1014.95 1014.87 1014.84 1014.87 1014.96 1015.11 1015.31 1015.54 1015.79 1016.06 1016.30 1016.51
1015.20 1014.86 1014.55 1014.29 1014.10 1014.00 1013.99 1014.09 1014.29 1014.57 1014.93 1015.34 1015.77 1016.19 1016.58 1016.92 1017.19 1017.38 1017.48 1017.50 1017.45 1017.33 1017.15 1016.93 1016.68 1016.40 1016.12 1015.84 1015.57 1015.31 1015.09 1014.89 1014.75 1014.65 1014.61 1014.64 1014.73 1014.88 1015.08 1015.31 1015.56 1015.81 1016.04 1016.22
1015.27 1014.99 1014.74 1014.54 1014.42 1014.38 1014.42 1014.56 1014.78 1015.06 1015.40 1015.76 1016.12 1016.46 1016.77 1017.02 1017.20 1017.32 1017.36 1017.33 1017.24 1017.10 1016.92 1016.71 1016.46 1016.20 1015.93 1015.65 1015.37 1015.11 1014.87 1014.66 1014.50 1014.40 1014.35 1014.38 1014.47 1014.62 1014.82 1015.06 1015.31 1015.56 1015.77 1015.94
1015.40 1015.15 1014.94 1014.79 1014.71 1014.71 1014.79 1014.94 1015.16 1015.43 1015.73 1016.05 1016.35 1016.63 1016.86 1017.03 1017.15 1017.20 1017.19 1017.13 1017.02 1016.87 1016.69 1016.48 1016.24 1015.99 1015.72 1015.44 1015.15 1014.88 1014.63 1014.41 1014.23 1014.11 1014.06 1014.09 1014.18 1014.34 1014.54 1014.79 1015.04 1015.29 1015.50 1015.66
1015.52 1015.29 1015.11 1014.98 1014.92 1014.94 1015.03 1015.19 1015.40 1015.65 1015.92 1016.19 1016.45 1016.67 1016.84 1016.96 1017.02 1017.03 1016.99 1016.90 1016.78 1016.63 1016.44 1016.24 1016.01 1015.75 1015.48 1015.20 1014.91 1014.63 1014.36 1014.13 1013.94 1013.82 1013.76 1013.78 1013.88 1014.04 1014.26 1014.51 1014.77 1015.02 1015.23 1015.38
1015.58 1015.37 1015.20 1015.09 1015.04 1015.06 1015.15 1015.30 1015.50 1015.73 1015.97 1016.21 1016.43 1016.60 1016.73 1016.81 1016.84 1016.82 1016.75 1016.65 1016.52 1016.36 1016.17 1015.97 1015.74 1015.49 1015.22 1014.94 1014.64 1014.35 1014.08 1013.84 1013.65 1013.52 1013.46 1013.49 1013.59 1013.77 1013.99 1014.25 1014.51 1014.76 1014.97 1015.12
1015.57 1015.37 1015.22 1015.12 1015.07 1015.10 1015.18 1015.32 1015.50 1015.71 1015.93 1016.13 1016.32 1016.46 1016.56 1016.61 1016.61 1016.56 1016.47 1016.36 1016.21 1016.05 1015.86 1015.66 1015.43 1015.18 1014.91 1014.63 1014.34 1014.05 1013.78 1013.54 1013.35 1013.23 1013.19 1013.22 1013.34 1013.52 1013.75 1014.01 1014.28 1014.53 1014.74 1014.89
1015.51 1015.34 1015.20 1015.11 1015.08 1015.10 1015.17 1015.30 1015.46 1015.64 1015.83 1016.00 1016.15 1016.26 1016.33 1016.35 1016.32 1016.25 1016.14 1016.01 1015.85 1015.67 1015.48 1015.28 1015.05 1014.81 1014.55 1014.27 1013.99 1013.72 1013.46 1013.24 1013.07 1012.96 1012.93 1012.98 1013.11 1013.30 1013.54 1013.81 1014.08 1014.33 1014.54 1014.68
1015.45 1015.31 1015.20 1015.13 1015.10 1015.12 1015.18 1015.28 1015.42 1015.57 1015.72 1015.86 1015.97 1016.04 1016.06 1016.04 1015.98 1015.88 1015.74 1015.59 1015.41 1015.23 1015.03 1014.82 1014.60 1014.37 1014.13 1013.87 1013.61 1013.36 1013.13 1012.94 1012.79 1012.71 1012.70 1012.77 1012.91 1013.11 1013.36 1013.63 1013.90 1014.14 1014.34 1014.48
1015.43 1015.33 1015.25 1015.20 1015.17 1015.18 1015.23 1015.30 1015.40 1015.50 1015.61 1015.69 1015.75 1015.77 1015.75 1015.68 1015.58 1015.44 1015.27 1015.09 1014.90 1014.71 1014.51 1014.31 1014.10 1013.89 1013.67 1013.44 1013.22 1013.00 1012.80 1012.64 1012.52 1012.47 1012.48 1012.57 1012.72 1012.93 1013.18 1013.44 1013.71 1013.95 1014.15 1014.28
1015.48 1015.42 1015.37 1015.32 1015.29 1015.29 1015.30 1015.34 1015.38 1015.44 1015.48 1015.51 1015.50 1015.46 1015.38 1015.26 1015.11 1014.93 1014.74 1014.53 1014.33 1014.13 1013.94 1013.75 1013.56 1013.38 1013.19 1013.00 1012.82 1012.64 1012.48 1012.35 1012.27 1012.23 1012.27 1012.36 1012.52 1012.74 1012.98 1013.25 1013.51 1013.75 1013.94 1014.06
1015.59 1015.56 1015.52 1015.47 1015.43 1015.39 1015.36 1015.34 1015.33 1015.32 1015.30 1015.25 1015.18 1015.08 1014.94 1014.77 1014.58 1014.37 1014.15 1013.93 1013.72 1013.52 1013.34 1013.17 1013.02 1012.87 1012.72 1012.57 1012.43 1012.29 1012.17 1012.07 1012.01 1012.00 1012.05 1012.15 1012.32 1012.53 1012.77 1013.03 1013.29 1013.52 1013.70 1013.82
1015.71 1015.69 1015.64 1015.57 1015.50 1015.42 1015.34 1015.26 1015.18 1015.10 1015.01 1014.90 1014.77 1014.61 1014.42 1014.21 1013.98 1013.74 1013.51 1013.29 1013.08 1012.90 1012.74 1012.60 1012.48 1012.37 1012.27 1012.16 1012.06 1011.96 1011.87 1011.80 1011.76 1011.77 1011.82 1011.93 1012.09 1012.30 1012.54 1012.79 1013.04 1013.27 1013.44 1013.56
1015.78 1015.74 1015.66 1015.56 1015.44 1015.31 1015.17 1015.03 1014.89 1014.75 1014.59 1014.43 1014.24 1014.04 1013.82 1013.58 1013.33 1013.09 1012.85 1012.64 1012.45 1012.29 1012.16 1012.05 1011.97 1011.90 1011.83 1011.76 1011.70 1011.63 1011.57 1011.53 1011.51 1011.53 1011.59 1011.70 1011.86 1012.07 1012.30 1012.55 1012.79 1013.01 1013.18 1013.28
1015.72 1015.64 1015.53 1015.37 1015.20 1015.01 1014.82 1014.62 1014.43 1014.23 1014.04 1013.83 1013.61 1013.38 1013.14 1012.90 1012.65 1012.41 1012.18 1011.99 1011.82 1011.69 1011.59 1011.52 1011.47 1011.43 1011.40 1011.37 1011.34 1011.30 1011.27 1011.25 1011.25 1011.28 1011.35 1011.47 1011.63 1011.83 1012.06 1012.30 1012.54 1012.75 1012.91 1013.01
1015.48 1015.36 1015.18 1014.98 1014.75 1014.52 1014.28 1014.04 1013.81 1013.59 1013.36 1013.14 1012.91 1012.67 1012.43 1012.19 1011.96 1011.73 1011.53 1011.36 1011.22 1011.11 1011.04 1011.00 1010.98 1010.97 1010.97 1010.97 1010.96 1010.95 1010.95 1010.95 1010.97 1011.02 1011.10 1011.23 1011.40 1011.60 1011.83 1012.06 1012.30 1012.50 1012.65 1012.74
1015.04 1014.86 1014.64 1014.39 1014.12 1013.85 1013.58 1013.32 1013.08 1012.84 1012.62 1012.39 1012.17 1011.94 1011.72 1011.50 1011.28 1011.08 1010.90 1010.75 1010.63 1010.55 1010.50 1010.48 1010.48 1010.49 1010.51 1010.54 1010.56 1010.58 1010.60 1010.63 1010.68 1010.75 1010.85 1010.99 1011.17 1011.38 1011.60 1011.84 1012.06 1012.25 1012.38 1012.45
1014.41 1014.18 1013.92 1013.64 1013.35 1013.07 1012.80 1012.54 1012.30 1012.07 1011.86 1011.65 1011.45 1011.24 1011.04 1010.83 1010.64 1010.46 1010.30 1010.17 1010.06 1009.99 1009.96 1009.95 1009.96 1009.99 1010.03 1010.07 1010.12 1010.17 1010.22 1010.28 1010.36 1010.46 1010.59 1010.75 1010.94 1011.15 1011.38 1011.60 1011.81 1011.98 1012.09 1012.13
Thickness
5539 5538 5535 5538 5540 5536 5535 5544 5549 5562 5559 5563 5560 5556 5554 5552 5549 5546 5545 5543 5541 5539 5538 5535 5532 5529 5526 5523 5519 5515 5512 5510 5508 5505 5501 5498 5496 5493 5490 5487 5484 5481 5478 5476
5531 5534 5531 5533 5541 5540 5538 5541 5546 5550 5554 5561 5556 5551 5548 5547 5544 5543 5542 5540 5537 5535 5533 5531 5528 5525 5522 5519 5515 5511 5508 5506 5503 5499 5496 5492 5489 5486 5483 5480 5476 5473 5470 5467
5539 5534 5534 5549 5556 5548 5545 5546 5546 5548 5556 5556 5550 5548 5546 5545 5542 5540 5539 5536 5534 5531 5529 5526 5524 5520 5518 5515 5511 5507 5504 5502 5498 5494 5490 5487 5484 5480 5477 5474 5470 5466 5463 5459
5528 5535 5540 5563 5548 5547 5545 5546 5545 5546 5550 5548 5545 5543 5541 5540 5538 5537 5535 5532 5530 5527 5524 5521 5518 5515 5512 5509 5505 5502 5499 5497 5493 5489 5485 5481 5477 5474 5471 5467 5463 5459 5455 5451
5521 5533 5548 5558 5545 5539 5540 5548 5547 5543 5543 5541 5537 5535 5542 5539 5534 5532 5529 5527 5524 5520 5517 5515 5512 5509 5505 5502 5500 5497 5495 5492 5488 5483 5479 5475 5472 5468 5464 5460 5456 5452 5448 5444
5516 5521 5543 5555 5540 5532 5534 5547 5545 5539 5538 5535 5529 5536 5543 5533 5527 5525 5522 5519 5516 5514 5511 5509 5507 5502 5498 5497 5495 5493 5491 5487 5482 5477 5473 5470 5466 5462 5457 5452 5448 5444 5440 5436
5511 5516 5540 5544 5532 5526 5536 5547 5536 5532 5531 5527 5525 5531 5529 5523 5520 5517 5515 5511 5508 5506 5505 5503 5500 5496 5493 5492 5490 5488 5483 5479 5475 5471 5467 5463 5459 5454 5449 5445 5440 5436 5433 5429
5511 5510 5531 5535 5524 5529 5537 5531 5526 5524 5522 5519 5518 5517 5515 5513 5511 5509 5507 5504 5502 5499 5498 5496 5492 5489 5488 5487 5485 5480 5476 5472 5468 5464 5459 5455 5451 5446 5441 5436 5432 5429 5425 5422
5523 5535 5536 5525 5526 5524 5518 5518 5517 5515 5513 5509 5508 5508 5507 5505 5504 5502 5500 5497 5495 5492 5491 5489 5486 5483 5483 5482 5477 5473 5469 5465 5461 5457 5452 5447 5443 5438 5433 5429 5425 5422 5418 5415
5509 5524 5524 5518 5516 5512 5509 5507 5507 5504 5501 5499 5499 5500 5498 5497 5496 5495 5493 5490 5487 5485 5483 5483 5480 5477 5475 5473 5468 5464 5462 5458 5454 5449 5444 5439 5434 5430 5426 5422 5418 5414 5411 5407
5504 5515 5513 5514 5509 5506 5502 5499 5496 5494 5492 5490 5489 5490 5489 5489 5488 5487 5484 5482 5479 5477 5476 5476 5473 5470 5467 5464 5460 5457 5454 5450 5445 5441 5437 5432 5427 5423 5419 5416 5412 5407 5403 5399
5512 5512 5506 5508 5502 5496 5493 5491 5489 5486 5485 5483 5480 5480 5479 5479 5479 5477 5474 5472 5469 5468 5468 5467 5465 5462 5459 5455 5451 5447 5444 5441 5437 5432 5428 5423 5419 5414 5409 5405 5401 5396 5392 5388
5499 5495 5492 5492 5489 5484 5482 5480 5477 5475 5474 5473 5472 5470 5468 5468 5467 5465 5464 5462 5460 5460 5459 5458 5455 5453 5450 5445 5441 5438 5435 5432 5428 5423 5419 5414 5410 5406 5402 5397 5391 5387 5383 5379
5482 5478 5478 5479 5477 5473 5470 5468 5465 5463 5463 5462 5460 5459 5457 5456 5456 5455 5454 5453 5451 5449 5448 5447 5445 5444 5442 5437 5432 5429 5426 5422 5418 5415 5410 5406 5401 5397 5393 5390 5385 5381 5375 5371
5471 5466 5466 5465 5462 5461 5458 5456 5455 5455 5455 5453 5451 5448 5447 5446 5446 5446 5445 5442 5440 5439 5438 5437 5436 5435 5431 5427 5423 5420 5416 5413 5409 5405 5401 5396 5392 5387 5383 5379 5376 5373 5367 5362
5458 5455 5452 5451 5451 5450 5448 5446 5445 5446 5445 5443 5441 5440 5438 5436 5435 5435 5433 5431 5429 5430 5429 5427 5426 5424 5420 5416 5412 5410 5407 5403 5398 5394 5391 5387 5382 5378 5374 5370 5366 5362 5359 5354
5444 5445 5443 5442 5441 5440 5437 5435 5434 5434 5433 5432 5431 5429 5427 5425 5425 5426 5425 5423 5420 5419 5417 5415 5414 5412 5408 5405 5402 5400 5397 5394 5388 5384 5382 5378 5374 5370 5366 5361 5357 5354 5350 5346
5435 5435 5433 5430 5429 5427 5427 5426 5424 5423 5422 5422 5420 5417 5416 5415 5416 5417 5416 5412 5410 5410 5408 5406 5404 5401 5398 5395 5392 5390 5387 5384 5380 5376 5373 5369 5366 5362 5357 5353 5349 5345 5341 5337
5424 5422 5420 5418 5417 5415 5415 5415 5414 5413 5411 5409 5407 5407 5407 5406 5406 5406 5404 5401 5400 5402 5404 5400 5395 5391 5389 5386 5382 5380 5377 5374 5370 5367 5363 5360 5356 5353 5349 5345 5341 5337 5333 5329
5413 5411 5409 5408 5406 5404 5405 5405 5404 5403 5402 5399 5398 5397 5398 5398 5397 5395 5393 5393 5394 5395 5393 5389 5385 5383 5380 5377 5373 5371 5368 5365 5362 5359 5355 5352 5349 5345 5341 5337 5333 5329 5325 5321
5402 5400 5399 5398 5397 5396 5395 5394 5393 5393 5392 5390 5388 5388 5388 5389 5386 5383 5383 5386 5390 5385 5382 5379 5377 5374 5371 5368 5365 5362 5359 5356 5353 5350 5347 5344 5341 5337 5333 5329 5325 5321 5317 5314
5391 5390 5389 5388 5387 5388 5388 5385 5383 5382 5381 5380 5379 5378 5377 5377 5377 5376 5376 5376 5379 5375 5372 5370 5368 5366 5362 5359 5357 5354 5351 5348 5345 5342 5339 5336 5332 5329 5325 5321 5317 5314 5310 5306
5381 5380 5379 5378 5377 5378 5378 5376 5374 5372 5371 5371 5370 5369 5369 5369 5368 5367 5370 5371 5368 5365 5363 5362 5360 5357 5354 5351 5349 5346 5343 5340 5337 5334 5331 5328 5325 5321 5318 5314 5310 5306 5302 5299
5371 5371 5369 5368 5366 5365 5367 5370 5367 5364 5363 5362 5362 5360 5358 5358 5360 5361 5360 5360 5358 5355 5354 5354 5351 5348 5345 5343 5341 5338 5335 5332 5330 5327 5324 5321 5317 5314 5310 5306 5303 5299 5296 5292
5360 5359 5358 5356 5356 5358 5359 5358 5357 5356 5355 5356 5356 5355 5351 5350 5350 5352 5351 5350 5349 5347 5346 5345 5343 5340 5338 5336 5333 5330 5328 5325 5322 5319 5317 5313 5310 5306 5303 5300 5296 5292 5289 5285
5350 5350 5351 5349 5348 5348 5348 5347 5347 5349 5347 5348 5349 5349 5346 5344 5342 5341 5341 5341 5339 5338 5337 5336 5335 5332 5330 5328 5326 5323 5321 5318 5316 5313 5310 5306 5304 5300 5297 5293 5289 5286 5282 5279
5341 5341 5340 5341 5342 5340 5338 5337 5337 5338 5338 5337 5339 5340 5339 5337 5335 5334 5332 5332 5331 5330 5329 5328 5327 5325 5323 5320 5318 5316 5314 5312 5309 5307 5303 5300 5297 5294 5290 5287 5283 5280 5276 5273